Atka, AK

12:47 PM HDT on March 30, 2017 (GMT -0900)
Atka

Weather History for PAAK - January, 2013

Change the Weather History Date:

Wednesday, January 30, 2013

  Actual Average (PADK) Record (PADK)
Temperature  
Mean Temperature 28 °F -  
Max Temperature 32 °F 36 °F 45 °F (1968)
Min Temperature 24 °F 28 °F 12 °F (2008)
Degree Days  
Heating Degree Days 37    
Moisture  
Dew Point 16 °F    
Average Humidity 62    
Maximum Humidity 74    
Minimum Humidity 47    
Precipitation  
Precipitation 0.00 in - - ()
Sea Level Pressure  
Sea Level Pressure 29.58 in    
Wind  
Wind Speed 8 mph (WSW)    
Max Wind Speed 23 mph    
Max Gust Speed 26 mph    
Visibility 10 miles    
Events      
Averages and records for this station are not official NWS values.
T = Trace of Precipitation, MM = Missing Value Source: NWS Daily Summary

Daily Weather History Graph

Daily Weather History Graph

Search for Another Location

Airport or City:

Trip Planner

Search our weather history database for the weather conditions in past years. The results will help you decide how hot, cold, wet, or windy it might be!

Date:

Astronomy

Jan. 30, 2013 Rise Set
Actual Time 9:19 AM HST 6:21 PM HST
Civil Twilight 8:42 AM HST 6:58 PM HST
Nautical Twilight 8:01 AM HST 7:39 PM HST
Astronomical Twilight 7:22 AM HST 8:19 PM HST
Moon 11:15 PM HST 10:18 AM HST
Length of Visible Light 10h 15m
Length of Day
9h 01m
Waning Gibbous, 86% of the Moon is Illuminated
Jan 30
Waning Gibbous
Feb 3
Last Quarter
Feb 9
New
Feb 17
First Quarter
Feb 25
Full

Hourly Weather History & Observations

Time (HST) Temp. Windchill Dew Point Humidity Pressure Visibility Wind Dir Wind Speed Gust Speed Precip Events Conditions
12:16 AM 28.4 °F 19.7 °F 21.2 °F 74% 29.42 in 5.0 mi WSW 9.2 mph - N/A   Mostly Cloudy
12:36 AM 28.4 °F 20.4 °F 21.2 °F 74% 29.43 in 4.0 mi West 8.1 mph - N/A   Overcast
12:56 AM 28.4 °F 20.4 °F 19.4 °F 69% 29.43 in 10.0 mi WSW 8.1 mph - N/A   Mostly Cloudy
1:16 AM 28.4 °F 18.5 °F 17.6 °F 64% 29.43 in 10.0 mi WSW 11.5 mph - N/A   Mostly Cloudy
1:36 AM 28.4 °F 19.1 °F 15.8 °F 59% 29.44 in 10.0 mi West 10.4 mph - N/A   Mostly Cloudy
1:56 AM 26.6 °F 17.5 °F 15.8 °F 64% 29.44 in 10.0 mi West 9.2 mph - N/A   Overcast
2:16 AM 28.4 °F 19.7 °F 17.6 °F 64% 29.45 in 10.0 mi West 9.2 mph - N/A   Overcast
2:36 AM 28.4 °F 20.4 °F 15.8 °F 59% 29.44 in 10.0 mi West 8.1 mph - N/A   Overcast
2:56 AM 28.4 °F 20.4 °F 17.6 °F 64% 29.44 in 10.0 mi WSW 8.1 mph - N/A   Overcast
3:16 AM 28.4 °F 20.4 °F 15.8 °F 59% 29.45 in 10.0 mi WSW 8.1 mph - N/A   Overcast
3:36 AM 28.4 °F 20.4 °F 12.2 °F 51% 29.46 in 10.0 mi SW 8.1 mph - N/A   Mostly Cloudy
3:56 AM 26.6 °F 17.5 °F 12.2 °F 55% 29.46 in 10.0 mi SW 9.2 mph - N/A   Scattered Clouds
4:16 AM 26.6 °F 16.2 °F 12.2 °F 55% 29.47 in 10.0 mi WSW 11.5 mph - N/A   Clear
4:36 AM 24.8 °F 14.6 °F 12.2 °F 59% 29.47 in 10.0 mi WSW 10.4 mph - N/A   Clear
4:56 AM 28.4 °F 19.1 °F 12.2 °F 51% 29.48 in 10.0 mi WSW 10.4 mph - N/A   Mostly Cloudy
5:16 AM 26.6 °F 17.5 °F 10.4 °F 51% 29.48 in 10.0 mi WSW 9.2 mph - N/A   Scattered Clouds
5:36 AM 26.6 °F 16.2 °F 12.2 °F 55% 29.48 in 10.0 mi WSW 11.5 mph - N/A   Partly Cloudy
5:56 AM 26.6 °F 15.2 °F 12.2 °F 55% 29.48 in 10.0 mi WSW 13.8 mph - N/A   Partly Cloudy
6:16 AM 26.6 °F 16.2 °F 10.4 °F 51% 29.48 in 10.0 mi WSW 11.5 mph - N/A   Partly Cloudy
6:36 AM 24.8 °F 14.0 °F 10.4 °F 54% 29.48 in 10.0 mi WSW 11.5 mph - N/A   Clear
6:56 AM 26.6 °F 17.5 °F 10.4 °F 51% 29.49 in 10.0 mi WSW 9.2 mph - N/A   Clear
7:16 AM 26.6 °F 15.7 °F 10.4 °F 51% 29.50 in 10.0 mi WSW 12.7 mph - N/A   Clear
7:36 AM 28.4 °F 18.0 °F 10.4 °F 47% 29.51 in 10.0 mi WSW 12.7 mph - N/A   Clear
7:56 AM 26.6 °F 16.8 °F 12.2 °F 55% 29.52 in 10.0 mi WSW 10.4 mph - N/A   Clear
8:16 AM 24.8 °F 14.6 °F 12.2 °F 59% 29.51 in 10.0 mi WSW 10.4 mph - N/A   Clear
8:36 AM 24.8 °F 15.3 °F 10.4 °F 54% 29.52 in 10.0 mi WSW 9.2 mph - N/A   Clear
8:56 AM 24.8 °F 14.0 °F 10.4 °F 54% 29.53 in 10.0 mi WSW 11.5 mph - N/A   Clear
9:16 AM 26.6 °F 17.5 °F 10.4 °F 51% 29.54 in 10.0 mi WSW 9.2 mph - N/A   Partly Cloudy
9:36 AM 28.4 °F 19.1 °F 12.2 °F 51% 29.54 in 10.0 mi WSW 10.4 mph - N/A   Mostly Cloudy
9:56 AM 28.4 °F 19.7 °F 12.2 °F 51% 29.55 in 10.0 mi WSW 9.2 mph - N/A   Overcast
10:16 AM 28.4 °F 21.2 °F 15.8 °F 59% 29.56 in 10.0 mi WSW 6.9 mph - N/A   Overcast
10:36 AM 30.2 °F 21.9 °F 15.8 °F 55% 29.57 in 10.0 mi SW 9.2 mph - N/A   Overcast
10:56 AM 28.4 °F 21.2 °F 15.8 °F 59% 29.57 in 10.0 mi SW 6.9 mph - N/A   Overcast
11:16 AM 30.2 °F 24.3 °F 17.6 °F 60% 29.57 in 10.0 mi WSW 5.8 mph - N/A   Mostly Cloudy
11:36 AM 30.2 °F 24.3 °F 15.8 °F 55% 29.58 in 10.0 mi WSW 5.8 mph - N/A   Scattered Clouds
11:56 AM 28.4 °F 20.4 °F 15.8 °F 59% 29.59 in 10.0 mi WSW 8.1 mph - N/A   Partly Cloudy
12:16 PM 28.4 °F 20.4 °F 15.8 °F 59% 29.59 in 10.0 mi WSW 8.1 mph - N/A   Mostly Cloudy
12:36 PM 28.4 °F 21.2 °F 17.6 °F 64% 29.59 in 10.0 mi WSW 6.9 mph - N/A   Partly Cloudy
12:56 PM 30.2 °F 24.3 °F 17.6 °F 60% 29.60 in 10.0 mi WSW 5.8 mph - N/A   Clear
1:16 PM 30.2 °F 23.4 °F 15.8 °F 55% 29.60 in 10.0 mi SW 6.9 mph - N/A   Clear
1:36 PM 30.2 °F 23.4 °F 15.8 °F 55% 29.61 in 10.0 mi SW 6.9 mph - N/A   Scattered Clouds
1:56 PM 30.2 °F 23.4 °F 15.8 °F 55% 29.61 in 10.0 mi WSW 6.9 mph - N/A   Scattered Clouds
2:16 PM 30.2 °F 23.4 °F 15.8 °F 55% 29.62 in 10.0 mi WSW 6.9 mph - N/A   Mostly Cloudy
2:36 PM 32.0 °F 24.8 °F 15.8 °F 51% 29.62 in 10.0 mi SW 8.1 mph - N/A   Overcast
2:56 PM 32.0 °F 24.2 °F 17.6 °F 55% 29.62 in 10.0 mi SW 9.2 mph - N/A   Overcast
3:16 PM 30.2 °F 22.6 °F 21.2 °F 69% 29.62 in 10.0 mi SW 8.1 mph - N/A   Mostly Cloudy
3:36 PM 30.2 °F 23.4 °F 21.2 °F 69% 29.63 in 10.0 mi SW 6.9 mph - N/A   Partly Cloudy
3:56 PM 30.2 °F 23.4 °F 19.4 °F 64% 29.62 in 10.0 mi WSW 6.9 mph - N/A   Clear
4:16 PM 28.4 °F 24.6 °F 19.4 °F 69% 29.63 in 10.0 mi NNW 3.5 mph - N/A   Clear
4:36 PM 28.4 °F - 19.4 °F 69% 29.64 in 10.0 mi Calm Calm - N/A   Clear
4:56 PM 28.4 °F - 19.4 °F 69% 29.64 in 10.0 mi Calm Calm - N/A   Partly Cloudy
5:16 PM 28.4 °F - 19.4 °F 69% 29.64 in 10.0 mi Calm Calm - N/A   Scattered Clouds
5:36 PM 26.6 °F - 17.6 °F 69% 29.65 in 10.0 mi Calm Calm - N/A   Scattered Clouds
5:56 PM 26.6 °F - 17.6 °F 69% 29.66 in 10.0 mi Calm Calm - N/A   Partly Cloudy
6:16 PM 26.6 °F - 17.6 °F 69% 29.66 in 10.0 mi Calm Calm - N/A   Clear
6:36 PM 26.6 °F - 17.6 °F 69% 29.67 in 10.0 mi Calm Calm - N/A   Mostly Cloudy
6:56 PM 26.6 °F - 17.6 °F 69% 29.68 in 10.0 mi Calm Calm - N/A   Partly Cloudy
7:16 PM 26.6 °F - 17.6 °F 69% 29.68 in 10.0 mi Calm Calm - N/A   Partly Cloudy
7:36 PM 26.6 °F - 17.6 °F 69% 29.69 in 10.0 mi Calm Calm - N/A   Scattered Clouds
7:56 PM 26.6 °F 12.0 °F 17.6 °F 69% 29.69 in 10.0 mi NW 23.0 mph - N/A   Partly Cloudy
8:16 PM 28.4 °F - 17.6 °F 64% 29.70 in 10.0 mi Calm Calm - N/A   Mostly Cloudy
8:36 PM 28.4 °F 14.7 °F 19.4 °F 69% 29.70 in 10.0 mi WSW 21.9 mph 26.5 mph N/A   Overcast
8:56 PM 30.2 °F - 19.4 °F 64% 29.71 in 10.0 mi Calm Calm - N/A   Overcast
9:16 PM 28.4 °F - 19.4 °F 69% 29.71 in 10.0 mi Calm Calm - N/A   Overcast
9:36 PM 28.4 °F - 21.2 °F 74% 29.71 in 10.0 mi Calm Calm - N/A   Overcast
9:56 PM 28.4 °F - 19.4 °F 69% 29.71 in 10.0 mi Calm Calm - N/A   Overcast
10:16 PM 28.4 °F - 19.4 °F 69% 29.71 in 10.0 mi Calm Calm - N/A   Overcast
10:36 PM 28.4 °F - 19.4 °F 69% 29.72 in 10.0 mi Calm Calm - N/A   Overcast
10:56 PM 26.6 °F - 19.4 °F 74% 29.72 in 10.0 mi Calm Calm - N/A   Scattered Clouds
11:16 PM 26.6 °F - 17.6 °F 69% 29.72 in 10.0 mi Calm Calm - N/A   Clear
11:36 PM 26.6 °F 22.6 °F 17.6 °F 69% 29.72 in 10.0 mi NNW 3.5 mph - N/A   Clear
11:56 PM 26.6 °F 22.6 °F 19.4 °F 74% 29.72 in 10.0 mi NNW 3.5 mph - N/A   Clear